Regional Weather Roundup
Issued by NWS Cleveland, OH

Home | Current Version | Previous Version | Text Only | Print | Product List | Glossary On
Versions: 1 2 3 4 5 6 7 8 9 10 11 12 13 14 15 16 17 18 19 20 21 22 23 24 25 26 27 28 29 30 31 32 33 34 35 36 37 38 39 40 41 42 43 44 45 46 47 48 49 50
046
ASUS41 KCLE 242012
RWRCLE
OHIO REGIONAL WEATHER ROUNDUP
NATIONAL WEATHER SERVICE WILMINGTON, OH
300 PM EST SAT FEB 24 2018

NOTE: "FAIR" INDICATES FEW OR NO CLOUDS BELOW 12,000 FEET WITH NO
SIGNIFICANT WEATHER AND/OR OBSTRUCTIONS TO VISIBILITY.

OHZ001>008-015>018-024>027-034-035-043-044-242100-
   NORTHWEST OHIO

CITY           SKY/WX    TMP DP  RH WIND       PRES   REMARKS
DEFIANCE       CLOUDY    40  36  86 NE13      30.05F
FINDLAY        CLOUDY    43  38  82 NE10      30.04F
TOLEDO EXPRESS CLOUDY    40  33  76 E13       30.08F
TOLEDO EXEC    CLOUDY    38  31  76 E15G21    30.10F
LIMA           CLOUDY    44  43  96 E10       30.02F
$$

OHZ009>014-019>023-028>033-038-089-242100-
   NORTHEAST OHIO

CITY           SKY/WX    TMP DP  RH WIND       PRES   REMARKS
CLE-HOPKINS    CLOUDY    39  35  86 N13       30.13F
CLE-LAKEFRONT  CLOUDY    37  33  85 NE15      30.10F
CUY CO. ARPT   CLOUDY    41  36  81 NE12      30.11F
LORAIN-ELYRIA  CLOUDY    38  31  76 NE17      30.09F
ASHTABULA      CLOUDY    40  34  79 NE6       30.11F
AKRON-CANTON   CLOUDY    45  42  89 E7        30.04F
WOOSTER        CLOUDY    45  43  93 E7        30.06R
MANSFIELD      CLOUDY    45  44  97 NE9       30.04F
YOUNGSTOWN     CLOUDY    45  43  93 SE9       30.06F
$$

OHZ042-051>053-060>062-070>072-077>081-242100-
  SOUTHWEST OHIO

CITY           SKY/WX    TMP DP  RH WIND       PRES   REMARKS
CINC-COVINGTON CLOUDY    55  51  86 E10       29.93F
CINC-LUNKEN    CLOUDY    56  51  84 SE6       29.96F
HAMILTON       CLOUDY    54  49  83 E9        29.97F
DAYTON         CLOUDY    49  47  93 E10       30.00S
WRIGHT-PAT AFB LGT RAIN  51  47  88 E7        29.99S
DAYTON GENERAL CLOUDY    51  47  86 E7        29.97R
WILMINGTON     CLOUDY    50  49  96 E13       29.97F
$$

OHZ036-037-039>041-045>050-054>059-063>069-073>076-082>088-242100-
  CENTRAL AND SOUTHEAST OHIO

CITY           SKY/WX    TMP DP  RH WIND       PRES   REMARKS
COLUMBUS       CLOUDY    50  47  89 E14       29.99F
OSU AIRPORT    CLOUDY    50  48  93 E15G21    29.99F
BOLTON FIELD   CLOUDY    50  46  87 E10G17    30.00F
RICKENBACK AFB CLOUDY    50  48  95 E14       29.98F
NEWARK         CLOUDY    50  46  86 E12       30.00F
MARION         CLOUDY    46  44  93 N10       30.04F
LANCASTER      CLOUDY    50  47  89 E14       30.00F
ZANESVILLE     CLOUDY    49  45  86 E9        30.02F
NEW PHILLY     PTSUNNY   50  46  86 E9        30.03F
$$




USA.gov is the U.S. government's official web portal to all federal, state and local government web resources and services.